Regional Weather Roundup
Issued by NWS

Home | Current Version | Previous Version | Text Only | Print | Product List | Glossary On
Versions: 1 2 3 4 5 6 7 8 9 10 11 12 13 14 15 16 17 18 19 20 21 22 23 24 25 26
000
ASUS42 KKEY 261410
RWRKEY

FLORIDA REGIONAL WEATHER ROUNDUP FOR THE FLORIDA KEYS
NATIONAL WEATHER SERVICE KEY WEST FLORIDA
1000 AM EDT THU MAY 26 2016

...SOUTH FLORIDA AND THE KEYS...

CITY           SKY/WX    TMP DP  RH WIND       PRES   REMARKS
FORT MYERS     SUNNY     80  60  50 E8        30.12S
SW REGIONAL AP SUNNY     79  60  52 E8        30.13S
NAPLES         SUNNY     81  58  45 NE13      30.12S
MIAMI          PTSUNNY   79  62  56 NE10G16   30.09F
WEST KENDALL   SUNNY     82  59  45 E16       30.08F
HOMESTEAD      SUNNY     81  60  48 NE10      30.08F
MARATHON       SUNNY     82  64  54 NE13      30.07F
BOCA CHICA NAS MOSUNNY   81  66  60 NE12      30.09R
KEY WEST INTL  SUNNY     81  68  64 NE9       30.10R

...INTERNATIONAL WEATHER...

CITY           SKY/WX    TMP DP  RH WIND       PRES   REMARKS
NASSAU BAHAMAS MOSUNNY   81  75  83 NE9       30.08F
CANCUN MEXICO  PTSUNNY   84  77  79 E12       30.02R HX  94
COZUMEL MEXICO MOSUNNY   82  75  78 SE14      30.00F

ADJACENT COASTAL WATERS...

STATION/POSITION TIME  SKY/WX   TEMP    WIND        PRES    WAVE
                                AIR SEA DIR/SP/G            HT/PER
                 (UTC)          (F)     (DEG/KT/KT) (MB)    (FT/S)
PULASKI SHOAL LI 1400            79      90/ 14/ 14 1018.8F
SAND KEY         1350            79      70/ 13/ 15 1019.4R
SOMBRERO KEY     NOT AVBL
LONG KEY         1400            79 81   60/ 14/ 16 1018.8F
MOLASSES REEF    1400            80 83   60/ 12/ 14 1018.9F
FOWEY ROCKS      1400            79 82   60/ 14/ 15 1019.3F

$$




USA.gov is the U.S. government's official web portal to all federal, state and local government web resources and services.